Location: Camp Creek
(33.9000°N, 111.8167°W)
Time: 17:34:13
(UTC-07:00)

Cosmos 1656 - Visible Passes

Search period start: 28 February 2015 00:00
Search period end: 10 March 2015 00:00
Orbit: 797 x 851 km, 71.1° (Epoch: 28 February)

Date Brightness Start Highest point End Pass type
(mag) Time Alt. Az. Time Alt. Az. Time Alt. Az.
04 Mar 6.4 21:35:54 10° N 21:35:57 10° N 21:35:57 10° N visible
05 Mar 6.0 21:15:39 10° N 21:16:23 14° N 21:16:23 14° N visible
06 Mar 5.7 20:55:26 10° N 20:56:51 17° N 20:56:51 17° N visible
07 Mar 5.4 20:35:15 10° N 20:37:23 20° NNE 20:37:23 20° NNE visible
07 Mar 6.6 22:18:44 10° NW 22:18:51 11° NW 22:18:51 11° NW visible
08 Mar 5.2 20:15:06 10° N 20:17:59 21° NNE 20:17:59 21° NNE visible
08 Mar 6.2 21:58:12 10° NW 21:59:28 16° NW 21:59:28 16° NW visible
09 Mar 5.0 19:55:01 10° N 19:58:39 21° NE 19:58:39 21° NE visible
09 Mar 5.6 21:37:43 10° NNW 21:40:08 25° NW 21:40:08 25° NW visible
